Time,TemperatureF,DewpointF,PressureIn,WindDirection,WindDirectionDegrees,WindSpeedMPH,WindSpeedGustMPH,Humidity,HourlyPrecipIn,Conditions,Clouds,dailyrainin,SoftwareType,DateUTC
2013-04-23 00:23:00,44.0,-99.9,-100.00,ENE,62,18.0,21.0,-999,-99.99,,,-99.99,,2013-04-23 04:23:00,
2013-04-23 00:33:00,44.0,-99.9,-100.00,ENE,62,18.0,21.0,-999,-99.99,,,-99.99,,2013-04-23 04:33:00,
2013-04-23 00:44:00,44.0,-99.9,-100.00,ENE,62,18.0,21.0,-999,-99.99,,,-99.99,,2013-04-23 04:44:00,
2013-04-23 00:52:00,44.0,-99.9,-100.00,North,9,13.0,19.0,-999,-99.99,,,-99.99,,2013-04-23 04:52:00,
2013-04-23 01:33:00,44.0,-99.9,-100.00,North,9,13.0,19.0,-999,-99.99,,,-99.99,,2013-04-23 05:33:00,
2013-04-23 01:43:00,44.0,-99.9,-100.00,North,9,13.0,19.0,-999,-99.99,,,-99.99,,2013-04-23 05:43:00,
2013-04-23 02:52:00,44.0,-99.9,-100.00,NNE,24,10.0,17.0,-999,-99.99,,,-99.99,,2013-04-23 06:52:00,
2013-04-23 03:32:00,44.0,-99.9,-100.00,NNE,24,10.0,17.0,-999,-99.99,,,-99.99,,2013-04-23 07:32:00,
2013-04-23 03:42:00,44.0,-99.9,-100.00,NNE,24,10.0,17.0,-999,-99.99,,,-99.99,,2013-04-23 07:42:00,
2013-04-23 03:52:00,44.0,-99.9,-100.00,NNE,31,12.0,23.0,-999,-99.99,,,-99.99,,2013-04-23 07:52:00,
2013-04-23 04:22:00,44.0,-99.9,-100.00,NNE,31,12.0,23.0,-999,-99.99,,,-99.99,,2013-04-23 08:22:00,
2013-04-23 04:32:00,44.0,-99.9,-100.00,NNE,31,12.0,23.0,-999,-99.99,,,-99.99,,2013-04-23 08:32:00,
2013-04-23 04:42:00,44.0,-99.9,-100.00,NNE,31,12.0,23.0,-999,-99.99,,,-99.99,,2013-04-23 08:42:00,
2013-04-23 04:52:00,44.0,-99.9,-100.00,North,-999,13.0,24.0,-999,-99.99,,,-99.99,,2013-04-23 08:52:00,
2013-04-23 05:22:00,44.0,-99.9,-100.00,North,-999,13.0,24.0,-999,-99.99,,,-99.99,,2013-04-23 09:22:00,
2013-04-23 05:33:00,44.0,-99.9,-100.00,North,-999,13.0,24.0,-999,-99.99,,,-99.99,,2013-04-23 09:33:00,
2013-04-23 05:52:00,44.0,-99.9,-100.00,North,10,13.0,22.0,-999,-99.99,,,-99.99,,2013-04-23 09:52:00,
2013-04-23 06:23:00,44.0,-99.9,-100.00,North,10,13.0,22.0,-999,-99.99,,,-99.99,,2013-04-23 10:23:00,
2013-04-23 06:33:00,44.0,-99.9,-100.00,North,10,13.0,22.0,-999,-99.99,,,-99.99,,2013-04-23 10:33:00,
2013-04-23 06:43:00,44.0,-99.9,-100.00,North,10,13.0,22.0,-999,-99.99,,,-99.99,,2013-04-23 10:43:00,
2013-04-23 06:52:00,43.0,-99.9,-100.00,North,-999,7.0,23.0,-999,-99.99,,,-99.99,,2013-04-23 10:52:00,
2013-04-23 07:33:00,43.0,-99.9,-100.00,North,-999,7.0,23.0,-999,-99.99,,,-99.99,,2013-04-23 11:33:00,
2013-04-23 07:43:00,43.0,-99.9,-100.00,North,-999,7.0,23.0,-999,-99.99,,,-99.99,,2013-04-23 11:43:00,
2013-04-23 07:52:00,43.0,-99.9,-100.00,North,-999,12.0,17.0,-999,-99.99,,,-99.99,,2013-04-23 11:52:00,
2013-04-23 08:22:00,43.0,-99.9,-100.00,North,-999,12.0,17.0,-999,-99.99,,,-99.99,,2013-04-23 12:22:00,
2013-04-23 08:32:00,43.0,-99.9,-100.00,North,-999,12.0,17.0,-999,-99.99,,,-99.99,,2013-04-23 12:32:00,
2013-04-23 08:42:00,43.0,-99.9,-100.00,North,-999,12.0,17.0,-999,-99.99,,,-99.99,,2013-04-23 12:42:00,
2013-04-23 08:52:00,42.0,-99.9,-100.00,NW,321,9.0,15.0,-999,-99.99,,,-99.99,,2013-04-23 12:52:00,
2013-04-23 09:22:00,42.0,-99.9,-100.00,NW,321,9.0,15.0,-999,-99.99,,,-99.99,,2013-04-23 13:22:00,
2013-04-23 09:32:00,42.0,-99.9,-100.00,NW,321,9.0,15.0,-999,-99.99,,,-99.99,,2013-04-23 13:32:00,
2013-04-23 09:42:00,42.0,-99.9,-100.00,NW,321,9.0,15.0,-999,-99.99,,,-99.99,,2013-04-23 13:42:00,
2013-04-23 09:52:00,42.0,-99.9,-100.00,NNW,346,10.0,17.0,-999,-99.99,,,-99.99,,2013-04-23 13:52:00,
2013-04-23 10:32:00,42.0,-99.9,-100.00,NNW,346,10.0,17.0,-999,-99.99,,,-99.99,,2013-04-23 14:32:00,
2013-04-23 10:42:00,42.0,-99.9,-100.00,NNW,346,10.0,17.0,-999,-99.99,,,-99.99,,2013-04-23 14:42:00,
2013-04-23 10:52:00,43.0,-99.9,-100.00,NNW,344,8.0,13.0,-999,-99.99,,,-99.99,,2013-04-23 14:52:00,
2013-04-23 11:32:00,43.0,-99.9,-100.00,NNW,344,8.0,13.0,-999,-99.99,,,-99.99,,2013-04-23 15:32:00,
2013-04-23 11:43:00,43.0,-99.9,-100.00,NNW,344,8.0,13.0,-999,-99.99,,,-99.99,,2013-04-23 15:43:00,
2013-04-23 11:52:00,43.0,-99.9,-100.00,WNW,298,15.0,18.0,-999,-99.99,,,-99.99,,2013-04-23 15:52:00,
2013-04-23 12:23:00,43.0,-99.9,-100.00,WNW,298,15.0,18.0,-999,-99.99,,,-99.99,,2013-04-23 16:23:00,
2013-04-23 12:34:00,43.0,-99.9,-100.00,WNW,298,15.0,18.0,-999,-99.99,,,-99.99,,2013-04-23 16:34:00,
2013-04-23 12:43:00,43.0,-99.9,-100.00,WNW,298,15.0,18.0,-999,-99.99,,,-99.99,,2013-04-23 16:43:00,
2013-04-23 12:52:00,44.0,-99.9,-100.00,North,-999,7.0,14.0,-999,-99.99,,,-99.99,,2013-04-23 16:52:00,
2013-04-23 13:22:00,44.0,-99.9,-100.00,North,-999,7.0,14.0,-999,-99.99,,,-99.99,,2013-04-23 17:22:00,
2013-04-23 13:33:00,44.0,-99.9,-100.00,North,-999,7.0,14.0,-999,-99.99,,,-99.99,,2013-04-23 17:33:00,
2013-04-23 13:43:00,44.0,-99.9,-100.00,North,-999,7.0,14.0,-999,-99.99,,,-99.99,,2013-04-23 17:43:00,
2013-04-23 13:52:00,46.0,-99.9,-100.00,NW,319,8.0,18.0,-999,-99.99,,,-99.99,,2013-04-23 17:52:00,
2013-04-23 14:32:00,46.0,-99.9,-100.00,NW,319,8.0,18.0,-999,-99.99,,,-99.99,,2013-04-23 18:32:00,
2013-04-23 14:42:00,46.0,-99.9,-100.00,NW,319,8.0,18.0,-999,-99.99,,,-99.99,,2013-04-23 18:42:00,
2013-04-23 14:52:00,47.0,-99.9,-100.00,NW,318,10.0,15.0,-999,-99.99,,,-99.99,,2013-04-23 18:52:00,
2013-04-23 15:22:00,47.0,-99.9,-100.00,NW,318,10.0,15.0,-999,-99.99,,,-99.99,,2013-04-23 19:22:00,
2013-04-23 15:33:00,47.0,-99.9,-100.00,NW,318,10.0,15.0,-999,-99.99,,,-99.99,,2013-04-23 19:33:00,
2013-04-23 15:42:00,47.0,-99.9,-100.00,NW,318,10.0,15.0,-999,-99.99,,,-99.99,,2013-04-23 19:42:00,
2013-04-23 15:52:00,47.0,-99.9,-100.00,NW,323,6.0,15.0,-999,-99.99,,,-99.99,,2013-04-23 19:52:00,
2013-04-23 16:22:00,47.0,-99.9,-100.00,NW,323,6.0,15.0,-999,-99.99,,,-99.99,,2013-04-23 20:22:00,
2013-04-23 16:32:00,47.0,-99.9,-100.00,NW,323,6.0,15.0,-999,-99.99,,,-99.99,,2013-04-23 20:32:00,
2013-04-23 16:42:00,47.0,-99.9,-100.00,NW,323,6.0,15.0,-999,-99.99,,,-99.99,,2013-04-23 20:42:00,
2013-04-23 16:52:00,49.0,-99.9,-100.00,West,281,9.0,14.0,-999,-99.99,,,-99.99,,2013-04-23 20:52:00,
2013-04-23 17:22:00,49.0,-99.9,-100.00,West,281,9.0,14.0,-999,-99.99,,,-99.99,,2013-04-23 21:22:00,
2013-04-23 17:33:00,49.0,-99.9,-100.00,West,281,9.0,14.0,-999,-99.99,,,-99.99,,2013-04-23 21:33:00,
2013-04-23 17:43:00,49.0,-99.9,-100.00,West,281,9.0,14.0,-999,-99.99,,,-99.99,,2013-04-23 21:43:00,
2013-04-23 17:52:00,50.0,-99.9,-100.00,WNW,296,7.0,10.0,-999,-99.99,,,-99.99,,2013-04-23 21:52:00,
2013-04-23 18:23:00,50.0,-99.9,-100.00,WNW,296,7.0,10.0,-999,-99.99,,,-99.99,,2013-04-23 22:23:00,
2013-04-23 18:33:00,50.0,-99.9,-100.00,WNW,296,7.0,10.0,-999,-99.99,,,-99.99,,2013-04-23 22:33:00,
2013-04-23 18:42:00,50.0,-99.9,-100.00,WNW,296,7.0,10.0,-999,-99.99,,,-99.99,,2013-04-23 22:42:00,
2013-04-23 18:52:00,50.0,-99.9,-100.00,NNW,334,6.0,11.0,-999,-99.99,,,-99.99,,2013-04-23 22:52:00,
2013-04-23 19:22:00,50.0,-99.9,-100.00,NNW,334,6.0,11.0,-999,-99.99,,,-99.99,,2013-04-23 23:22:00,
2013-04-23 19:32:00,50.0,-99.9,-100.00,NNW,334,6.0,11.0,-999,-99.99,,,-99.99,,2013-04-23 23:32:00,
2013-04-23 19:42:00,50.0,-99.9,-100.00,NNW,334,6.0,11.0,-999,-99.99,,,-99.99,,2013-04-23 23:42:00,
2013-04-23 19:52:00,50.0,-99.9,-100.00,WNW,303,5.0,8.0,-999,-99.99,,,-99.99,,2013-04-23 23:52:00,
2013-04-23 20:32:00,50.0,-99.9,-100.00,WNW,303,5.0,8.0,-999,-99.99,,,-99.99,,2013-04-24 00:32:00,
2013-04-23 20:42:00,50.0,-99.9,-100.00,WNW,303,5.0,8.0,-999,-99.99,,,-99.99,,2013-04-24 00:42:00,
2013-04-23 20:52:00,50.0,-99.9,-100.00,North,9,7.0,9.0,-999,-99.99,,,-99.99,,2013-04-24 00:52:00,
2013-04-23 21:32:00,50.0,-99.9,-100.00,North,9,7.0,9.0,-999,-99.99,,,-99.99,,2013-04-24 01:32:00,
2013-04-23 21:43:00,50.0,-99.9,-100.00,North,9,7.0,9.0,-999,-99.99,,,-99.99,,2013-04-24 01:43:00,
2013-04-23 21:52:00,50.0,-99.9,-100.00,NNW,344,5.0,7.0,-999,-99.99,,,-99.99,,2013-04-24 01:52:00,
2013-04-23 22:42:00,50.0,-99.9,-100.00,NNW,344,5.0,7.0,-999,-99.99,,,-99.99,,2013-04-24 02:42:00,
2013-04-23 22:52:00,48.0,-99.9,-100.00,WNW,286,3.0,4.0,-999,-99.99,,,-99.99,,2013-04-24 02:52:00,
2013-04-23 23:45:00,48.0,-99.9,-100.00,WNW,286,3.0,4.0,-999,-99.99,,,-99.99,,2013-04-24 03:45:00,